Hourly Data Report for October 03, 2013

All times are specified in Local Standard Time (LST). Add 1 hour to adjust for Daylight Saving Time where and when it is observed.

CHARLOTTETOWN A
PRINCE EDWARD ISLAND

46°17'21.000" N
63°07'09.000" W
48.50 m
8300301
71706
YYG

Download Data

Hourly Data (October 2013)
Hourly Data Report for October 3, 2013
Temp Definition
°C
Dew Point Temp Definition
°C
Rel Hum Definition
%
Wind Dir Definition
10's deg

Wind Spd Definition
km/h
Visibility Definition
km
Stn Press Definition
kPa
Hmdx Definition


Wind Chill Definition


Weather Definition


TIME
00:00 Legend Double Dagger 14.3 12.5 89 25 14 24.1 99.81     LegendNANA
01:00 Legend Double Dagger 13.4 11.0 85 26 13 24.1 99.85     LegendNANA
02:00 Legend Double Dagger 14.4 10.5 77 27 16 24.1 99.89     Mostly Cloudy
03:00 Legend Double Dagger 14.5 8.1 65 28 17 24.1 99.92     LegendNANA
04:00 Legend Double Dagger 13.8 7.2 64 27 16 24.1 99.97     LegendNANA
05:00 Legend Double Dagger 13.1 7.2 67 27 18 24.1 100.04     Mainly Clear
06:00 Legend Double Dagger 12.7 7.2 69 28 15 24.1 100.09     LegendNANA
07:00 Legend Double Dagger 13.1 6.9 66 28 19 24.1 100.16     LegendNANA
08:00 Legend Double Dagger 14.4 7.3 62 28 25 24.1 100.23     Mainly Clear
09:00 Legend Double Dagger 15.3 7.9 61 29 23 24.1 100.28     LegendNANA
10:00 Legend Double Dagger 15.8 7.9 59 29 26 24.1 100.31     LegendNANA
11:00 Legend Double Dagger 16.8 7.5 54 30 21 24.1 100.32     Mainly Clear
12:00 Legend Double Dagger 17.0 7.7 54 29 21 24.1 100.32     LegendNANA
13:00 Legend Double Dagger 17.3 7.2 51 29 30 24.1 100.31     LegendNANA
14:00 Legend Double Dagger 17.8 7.1 49 28 27 24.1 100.31     Mainly Clear
15:00 Legend Double Dagger 17.6 7.5 51 28 19 24.1 100.30     LegendNANA
16:00 Legend Double Dagger 17.6 7.2 50 29 23 24.1 100.34     LegendNANA
17:00 Legend Double Dagger 16.8 7.0 52 29 22 24.1 100.38     Mainly Clear
18:00 Legend Double Dagger 15.0 6.1 55 28 13 24.1 100.44     LegendNANA
19:00 Legend Double Dagger 13.7 6.6 62 28 13 24.1 100.45     LegendNANA
20:00 Legend Double Dagger 12.8 6.9 67 27 14 24.1 100.49     Mainly Clear
21:00 Legend Double Dagger 13.0 7.1 67 29 19 24.1 100.54     LegendNANA
22:00 Legend Double Dagger 11.8 7.4 74 29 12 24.1 100.59     LegendNANA
23:00 Legend Double Dagger 11.8 6.8 71 29 12 24.1 100.61     Mainly Clear

Notes on Data Quality.

Legend

  • E = Estimated
  • M = Missing
  • NA = Not Available
  • ‡ = Partner data that is not subject to review by the National Climate Archives
Date modified: